Naples, Italy

4:32 PM CEST on April 19, 2018 (GMT +0200)
Capodichino Mil

Weather History for LIRN - September, 2013

Change the Weather History Date:

Sunday, September 8, 2013

  Actual Average Record
Temperature  
Mean Temperature 78 °F -  
Max Temperature 87 °F 77 °F 89 °F (1997)
Min Temperature 69 °F 58 °F 51 °F (1996)
Cooling Degree Days 13    
Growing Degree Days 28 (Base 50)    
Moisture  
Dew Point 67 °F    
Average Humidity 70    
Maximum Humidity 83    
Minimum Humidity 40    
Precipitation  
Precipitation 0.00 in 0.12 in - ()
Sea Level Pressure  
Sea Level Pressure 30.14 in    
Wind  
Wind Speed 3 mph ()    
Max Wind Speed 10 mph    
Max Gust Speed -    
Visibility 6.2 miles    
Events      
Averages and records for this station are not official NWS values.
T = Trace of Precipitation, MM = Missing Value Source: Averaged Metar Reports

Daily Weather History Graph

Daily Weather History Graph

Search for Another Location

Airport or City:

Astronomy

Sep. 08, 2013 Rise Set
Actual Time 6:36 AM CEST 7:23 PM CEST
Civil Twilight 6:08 AM CEST 7:51 PM CEST
Nautical Twilight 5:35 AM CEST 8:24 PM CEST
Astronomical Twilight 5:01 AM CEST 8:58 PM CEST
Moon 9:37 AM CEST (9/8) 8:46 PM CEST (9/8)
Length of Visible Light 13h 42m
Length of Day
12h 47m
Waxing Crescent, 9% of the Moon is Illuminated
Sep 8
Waxing Crescent
Sep 12
First Quarter
Sep 19
Full
Sep 27
Last Quarter
Oct 5
New

Hourly Weather History & Observations

Time (CEST) Temp. Heat Index Dew Point Humidity Pressure Visibility Wind Dir Wind Speed Gust Speed Precip Events Conditions
12:20 AM 73.4 °F - 68.0 °F 83% 30.12 in - Variable 1.2 mph - N/A   Clear
12:50 AM 75.2 °F - 68.0 °F 78% 30.12 in - Variable 1.2 mph - N/A   Clear
1:50 AM 75.2 °F - 68.0 °F 78% 30.12 in - Variable 2.3 mph - N/A   Clear
2:20 AM 73.4 °F - 68.0 °F 83% 30.12 in - Variable 1.2 mph - N/A   Clear
2:50 AM 73.4 °F - 68.0 °F 83% 30.12 in - Calm Calm - N/A   Clear
3:20 AM 73.4 °F - 66.2 °F 78% 30.12 in - NNE 2.3 mph - N/A   Clear
3:50 AM 71.6 °F - 66.2 °F 83% 30.12 in - Variable 1.2 mph - N/A   Clear
4:20 AM 71.6 °F - 64.4 °F 78% 30.12 in - West 2.3 mph - N/A   Clear
5:20 AM 71.6 °F - 66.2 °F 83% 30.12 in - WSW 2.3 mph - N/A   Clear
5:50 AM 69.8 °F - 64.4 °F 83% 30.12 in - East 3.5 mph - N/A   Clear
6:20 AM 69.8 °F - 64.4 °F 83% 30.12 in - North 2.3 mph - N/A   Clear
6:50 AM 69.8 °F - 64.4 °F 83% 30.15 in 6.2 mi Variable 2.3 mph - N/A   Partly Cloudy
7:20 AM 69.8 °F - 62.6 °F 78% 30.15 in 6.2 mi ENE 3.5 mph - N/A   Partly Cloudy
7:50 AM 71.6 °F - 64.4 °F 78% 30.15 in 6.2 mi Variable 2.3 mph - N/A   Partly Cloudy
8:20 AM 75.2 °F - 66.2 °F 73% 30.15 in 6.2 mi ENE 3.5 mph - N/A   Partly Cloudy
8:50 AM 75.2 °F - 66.2 °F 73% 30.15 in 6.2 mi NE 3.5 mph - N/A   Partly Cloudy
9:20 AM 78.8 °F - 69.8 °F 74% 30.15 in 6.2 mi Variable 2.3 mph - N/A   Partly Cloudy
9:50 AM 78.8 °F - 69.8 °F 74% 30.15 in 6.2 mi Variable 2.3 mph - N/A   Partly Cloudy
10:20 AM 80.6 °F 83.2 °F 68.0 °F 65% 30.15 in 6.2 mi Variable 3.5 mph - N/A   Partly Cloudy
10:50 AM 82.4 °F 85.4 °F 68.0 °F 62% 30.15 in 6.2 mi Variable 3.5 mph - N/A   Partly Cloudy
11:20 AM 82.4 °F 86.3 °F 69.8 °F 66% 30.15 in 6.2 mi SSW 5.8 mph - N/A   Partly Cloudy
11:50 AM 84.2 °F 88.4 °F 69.8 °F 62% 30.15 in 6.2 mi SSE 4.6 mph - N/A   Partly Cloudy
12:20 PM 82.4 °F 86.3 °F 69.8 °F 66% 30.15 in 6.2 mi South 6.9 mph - N/A   Partly Cloudy
12:50 PM 84.2 °F 88.4 °F 69.8 °F 62% 30.15 in 6.2 mi South 6.9 mph - N/A   Partly Cloudy
1:20 PM 84.2 °F 88.4 °F 69.8 °F 62% 30.15 in 6.2 mi South 6.9 mph - N/A   Partly Cloudy
1:50 PM 84.2 °F 87.3 °F 68.0 °F 58% 30.15 in 6.2 mi South 9.2 mph - N/A   Partly Cloudy
2:20 PM 86.0 °F 87.3 °F 64.4 °F 48% 30.15 in 6.2 mi South 10.4 mph - N/A   Partly Cloudy
2:50 PM 84.2 °F 86.6 °F 66.2 °F 55% 30.15 in - SSW 9.2 mph - N/A   Clear
3:20 PM 84.2 °F 86.6 °F 66.2 °F 55% 30.12 in - South 8.1 mph - N/A   Clear
3:50 PM 86.0 °F 89.4 °F 68.0 °F 55% 30.12 in - South 6.9 mph - N/A   Clear
4:20 PM 87.8 °F 87.6 °F 60.8 °F 40% 30.15 in - Variable 4.6 mph - N/A   Clear
4:50 PM 84.2 °F 83.8 °F 59.0 °F 42% 30.15 in - WNW 10.4 mph - N/A   Clear
5:20 PM 84.2 °F 85.0 °F 62.6 °F 48% 30.12 in - West 9.2 mph - N/A   Clear
5:50 PM 84.2 °F 85.6 °F 64.4 °F 51% 30.12 in - West 6.9 mph - N/A   Clear
6:20 PM 82.4 °F 83.9 °F 64.4 °F 54% 30.12 in - WNW 5.8 mph - N/A   Clear
6:50 PM 80.6 °F 82.3 °F 64.4 °F 58% 30.12 in - WNW 6.9 mph - N/A   Clear
7:20 PM 78.8 °F - 68.0 °F 69% 30.15 in - WNW 9.2 mph - N/A   Clear
7:50 PM 78.8 °F - 68.0 °F 69% 30.15 in - WNW 6.9 mph - N/A   Clear
8:20 PM 77.0 °F - 69.8 °F 78% 30.15 in - WNW 5.8 mph - N/A   Clear
8:50 PM 77.0 °F - 69.8 °F 78% 30.15 in - WNW 6.9 mph - N/A   Clear
9:20 PM 77.0 °F - 69.8 °F 78% 30.15 in - NW 5.8 mph - N/A   Clear
9:50 PM 77.0 °F - 69.8 °F 78% 30.12 in - ENE 3.5 mph - N/A   Clear
10:50 PM 75.2 °F - 69.8 °F 83% 30.15 in - Variable 1.2 mph - N/A   Clear
11:20 PM 75.2 °F - 69.8 °F 83% 30.15 in - Calm Calm - N/A   Clear
11:50 PM 75.2 °F - 69.8 °F 83% 30.15 in - East 2.3 mph - N/A   Clear